www.pogodaiklimat.ru

Погода и климат >> Архив погоды >> Испания >> Zaragoza


ПОГОДА в Zaragoza

  • Прогноз погоды в Zaragoza
  • Монитор погоды в Zaragoza
  • Климат города

АРХИВ ПОГОДЫ в Zaragoza

Время (UTC), дата Ветер
(напр.,м/с)
 
Видим.   Явления Облачность Т
(С)
Тd
(С)
f
(%)
Тe
(С)
Тes
(С)
Комфортность P
(гПа)
Po
(гПа)
Тmin
(С)
Tmax
(С)
R
(мм)
R24
(мм)
S
(см)
18 16.06 СЗ 7 30 км 5/1 1000 м
[Sc Ac trans Ci sp]
+25.5 +7.6 32 +26 +26 жарко 1015.2 985.9 +27.7
21 16.06 З 8 25 км 5/0
[Ci]
+19.7 +8.4 48 +20 +20 1017.7 987.7
00 17.06 СЗ 11 20 км ясно +16.8 +9.0 60 +15 +15 1019.9 989.6
03 17.06 СЗ 8 25 км 1/0
[Ci fib]
+15.2 +9.3 68 +13 +13 1020.2 989.7
06 17.06 СЗ 10 30 км 1/0 2000 м
[Ci fib]
+16.2 +9.8 66 +14 +14 1021.5 991.1 +15.0
09 17.06 СЗ 9 30 км 6/0
[Cs]
+20.2 +10.9 55 +21 +22 комфорт 1022.1 992.1
12 17.06 СЗ 12 30 км 4/0
[Cs]
+24.9 +10.7 41 +26 +26 жарко 1020.9 991.4
15 17.06 СЗ 11 30 км 1/0
[Ci sp]
+26.9 +7.4 29 +27 +27 жарко 1019.2 989.9
18 17.06 СЗ 9 30 км ясно +25.9 +6.5 29 +26 +26 жарко 1019.6 990.2 +27.4
21 17.06 СЗ 13 30 км ясно +21.0 +4.1 33 +21 +21 комфорт 1021.8 991.8
00 18.06 З 9 30 км 1/0
[Ci fib]
+17.4 +7.7 53 +16 +16 1022.5 992.2
03 18.06 СЗ 10 30 км 1/0
[Ci fib]
+17.2 +6.7 50 +16 +16 1022.3 991.9
06 18.06 СЗ 8 30 км 4/1 1500 м
[Sc Ci fib]
+17.9 +8.2 53 +17 +17 1023.0 992.7 +16.5
09 18.06 СЗ 8 40 км 4/1 1000 м
[Sc Ci fib]
+22.6 +10.4 46 +24 +27 комфорт 1022.5 992.7
12 18.06 СЗ 12 40 км 6/1 1000 м
[Sc Ci]
+27.0 +12.2 40 +28 +28 жарко 1021.0 991.7
15 18.06 СЗ 11 30 км 5/1 1000 м
[Sc Ac trans Ci fib]
+27.1 +11.9 39 +28 +28 жарко 1020.1 990.8
18 18.06 СЗ 13 30 км 4/0
[Ac trans Ci fib]
+24.5 +12.1 46 +26 +26 жарко 1020.1 990.6 +27.8
21 18.06 СЗ 10 30 км 3/1 1000 м
[Sc diur, vesp Ci fib]
+20.3 +12.3 60 +21 +21 комфорт 1022.1 992.1
00 19.06 СЗ 7 20 км ясно +18.7 +12.4 67 +19 +19 1022.5 992.3
03 19.06 СЗ 6 н/о н/о +17.7 +11.9 69 +17 +17 1022.5 992.2
06 19.06 СЗ 5 30 км 1/0
[Ci fib]
+18.2 +11.7 66 +18 +19 1023.1 992.9 +16.9
09 19.06 СЗ 5 30 км ясно +21.9 +12.2 54 +24 +30 комфорт 1022.3 992.5
12 19.06 СЗ 4 30 км 1/0
[Ci fib]
+26.2 +12.6 43 +28 +42 жарко 1020.2 990.8
15 19.06 С 2 30 км 1/0
[Ci fib]
+30.6 +12.0 32 +31 +45 жарко 1017.5 988.6
18 19.06 С 1 30 км ясно +31.8 +11.6 29 +32 +34 жарко 1015.9 987.2 +32.1
21 19.06 ЮЗ 1 30 км 1/0
[Ci fib]
+26.0 +12.4 43 +28 +28 жарко 1017.2 987.9
00 20.06 С 1 30 км ясно +21.9 +13.5 59 +25 +25 комфорт 1018.1 988.4
03 20.06 ЮВ 1 20 км ясно +19.5 +13.7 69 +22 +22 комфорт 1018.7 988.7
06 20.06 В 1 30 км ясно +20.7 +15.3 71 +25 +27 комфорт 1019.2 989.4 +18.4
09 20.06 В 3 30 км ясно +26.8 +15.2 49 +30 +40 душно 1018.4 989.2
12 20.06 ЮВ 4 30 км 1/1 1000 м
[Cu hum]
+31.5 +13.7 34 +33 +45 жарко 1017.0 988.2
15 20.06 В 5 30 км 3/1 1000 м
[Cu med, cong Ci fib]
+33.6 +9.6 23 +33 +39 жарко 1015.0 986.5
18 20.06 ЮВ 3 30 км 1/1 1500 м
[Cb cap]
+33.1 +10.4 25 +33 +34 жарко 1014.2 985.6 +34.0
21 20.06 ЮВ 4 30 км ясно +26.9 +9.7 34 +27 +27 жарко 1016.6 987.4
00 21.06 В 3 30 км ясно +21.9 +11.3 51 +24 +24 комфорт 1017.8 988.1
03 21.06 ЮЗ 1 30 км ясно +19.8 +11.3 58 +23 +23 комфорт 1018.1 988.2
06 21.06 С 1 30 км ясно +20.4 +12.6 61 +24 +25 комфорт 1018.7 988.8 +18.2
09 21.06 СЗ 3 25 км 4/0
[Ac trans]
+25.9 +12.0 42 +27 +36 жарко 1018.1 988.8
12 21.06 СЗ 2 25 км 1/1 1500 м
[Cu hum]
+31.8 +9.9 26 +31 +49 жарко 1016.2 987.5
15 21.06 Ю 1 25 км 1/1 1000 м
[Cu med, cong]
+34.7 +11.2 24 +34 +48 очень
жарко
1014.4 986.0
18 21.06 СЗ 2 25 км 1/1 1000 м
[Cu hum Ci ing]
+35.0 +12.0 25 +35 +36 очень
жарко
1013.3 985.0 +35.4
21 21.06 СЗ 8 25 км 3/1 1000 м
[Sc Cs]
+28.8 +15.7 45 +32 +32 душно 1015.6 986.7
00 22.06 СЗ 10 25 км 3/0
[Ac und Cs]
+23.3 +15.6 62 +28 +28 душно 1017.3 987.8
03 22.06 СЗ 8 25 км 1/0
[Ci fib]
+21.5 +16.0 71 +25 +25 комфорт 1017.7 988.0
06 22.06 СЗ 8 20 км 3/3 1000 м
[Sc]
+21.5 +16.2 72 +25 +25 комфорт 1018.5 988.8 +21.0
09 22.06 СЗ 7 25 км ясно +25.8 +16.6 57 +29 +33 душно 1017.9 988.6
12 22.06 СЗ 8 30 км ясно +30.2 +15.9 42 +33 +37 душно 1016.4 987.6
15 22.06 СЗ 10 30 км ясно +32.7 +13.4 31 +34 +34 очень
жарко
1014.6 986.0
18 22.06 СЗ 10 30 км ясно +30.3 +12.2 33 +31 +31 жарко 1014.5 985.7 +32.9
21 22.06 СЗ 13 30 км 1/0
[Ac cuf Ci ing]
+24.3 +14.7 55 +27 +27 жарко 1016.6 987.2
00 23.06 СЗ 8 30 км 1/0
[Ac cuf Ci sp]
+21.3 +13.0 59 +24 +24 комфорт 1018.4 988.6
03 23.06 СЗ 7 30 км 4/0
[Ci sp]
+19.8 +11.8 60 +21 +21 комфорт 1018.3 988.4
06 23.06 СЗ 8 30 км 1/0
[Cc]
+19.4 +11.4 60 +20 +20 1019.2 989.2 +18.0
09 23.06 СЗ 5 30 км 3/0
[Ci sp]
+23.7 +11.7 47 +25 +32 комфорт 1018.8 989.2
12 23.06 СЗ 3 25 км 3/1 1500 м
[Cu med, cong Ac cuf Ci fib]
+28.5 +14.3 42 +31 +45 душно 1017.0 988.0
15 23.06 З 3 25 км 3/1 1500 м
[Cu med, cong Ac cuf Ci ing]
+32.2 +11.4 28 +32 +41 жарко 1014.2 985.6

 

Местоположение метеостанции Zaragoza (Испания): широта 41.67 долгота -1.00 высота над уровнем моря 258 м.

В архиве по умолчанию представлена погода в Zaragoza за последнюю неделю. Архивные данные за месяц целиком и за предыдущие месяцы, начиная с января 2011 года, Вы можете получить, выбрав интересующий диапазон дат из раскрывающегося списка и нажав кнопку "Ввод!".


*Определитесь, кто Вы:
робот инопланетянин человек

Внимание! Время в таблицах - всемирное. Для получения местного времени необходимо прибавить поправку, которая в Zaragoza равна 1 ч.

Смотрите также архив погоды в соседних городах и на ближайших метеорологических станциях:

Погода в Bardenas Reales (Испания) (71 км)
Погода в Calamocha (Испания) (86 км)
Погода в Molina de Aragon (Испания) (117 км)
Погода в Soria (Испания) (123 км)
Погода в Pamplona (Испания) (133 км)
Погода в Lerida (Испания) (133 км)
Погода в Refugio de Casa Piedra (Испания) (138 км)
Погода в Logrono (Испания) (140 км)
Погода в Refugio de Belagua (Испания) (143 км)
Погода в Teruel (Испания) (147 км)

Пояснения к столбцам:

Ветер - указаны скорость ветра в м/с - средняя за 10 мин, порывы в срок и между сроками (в фигурных скобках) и направление, откуда дует ветер: С - северный, СВ - северо-восточный, В - восточный, ЮВ - юго-восточный, Ю - южный, ЮЗ - юго-западный, З - западный, СЗ - северо-западный.
Видимость - горизонтальная дальность видимости в метрах или километрах. При видимости от 1 до 10 км при отсутствии осадков обычно наблюдается дымка, при ухудшении видимости до 1 км и менее - туман. В сухую погоду видимость может ухудшаться дымом, пылью или мглою.
Явления - указаны атмосферные явления, наблюдавшиеся в срок или в последний час перед сроком; фигурными скобками обозначены явления, наблюдавшиеся между сроками (за 1-3 часа до срока); квадратными скобками обозначены град или гололедные отложения с указанием их диаметра в мм.
Облачность - указаны через наклонную черту общая и нижняя облачность в баллах и высота нижней границы облаков в метрах; квадратными скобками обозначены формы облаков: Ci - перистые, Cs - перисто-слоистые, Cc - перисто-кучевые, Ac - высококучевые, As - высокослоистые, Sc - слоисто-кучевые, Ns - слоисто-дождевые, Cu - кучевые, Cb - кучево-дождевые. Подробнее классификацию облаков см. в Атласе облаков (PDF).
T - Температура воздуха - температура, измеренная на высоте 2 м над землей.
Td - Температура точки росы - температура, при понижении до которой содержащийся в воздухе водяной пар достигнет насыщения.
f - Относительная влажность воздуха - влажноcть воздуха, измеренная на высоте 2 м над землей.
Te - Эффективная температура - температура, которую ощущает одетый по сезону человек в тени. Характеристика душности погоды. При расчете учитывается влияние влажности воздуха и скорости ветра на теплоощущения человека.
Tes - Эффективная температура на солнце - температура, которую ощущает человек, с поправкой на солнечный нагрев. Характеристика знойности погоды. Зависит от высоты солнца над горизонтом, облачности и скорости ветра. Ночью, в пасмурную погоду, а также при ветре 12 м/с и более поправка равна нулю.
P - Атмосферное давление - приведенное к уровню моря атмосферное давление.
Po - Атмосферное давление - измеренное на уровне метеостанции атмосферное давление.
Tmin - Минимальная температура - минимум температуры воздуха на высоте 2 м над землей.
Tmax - Максимальная температура - максимум температуры воздуха на высоте 2 м над землей.
R - Количество осадков - Количество выпавших осадков за период времени, мм. При наведении курсора мыши на число - период времени, за который выпало указанное количество осадков.
R24 - Количество осадков - Количество выпавших осадков за 24 часа, мм.
S - Снежный покров - Высота снежного покрова, см. При наведении курсора мыши на число - состояние снежного покрова и степень покрытия местности в баллах.